Regional Weather Roundup
Issued by NWS Kansas City/Pleasant Hill, MO

Home | Current Version | Previous Version | Graphics & Text | Print | Product List | Glossary Off
Versions: 1 2 3 4 5 6 7 8 9 10 11 12 13 14 15 16 17 18 19 20 21 22 23 24 25 26 27 28 29 30 31 32 33 34 35 36 37 38 39 40 41 42 43 44 45 46 47 48 49 50

000
ASUS43 KEAX 260804
RWREAX

WEATHER ROUNDUP FOR EASTERN KANSAS AND NORTHWEST MISSOURI
NATIONAL WEATHER SERVICE KANSAS CITY/PLEASANT HILL MO
200 AM CST FRI DEC 26 2014

KSZ040-057-103>105-MOZ028-029-037-043-260900-
...KANSAS CITY METROPOLITAN AREA...

CITY           SKY/WX    TMP DP  RH WIND       PRES   REMARKS
K.C. INTL      PTCLDY    45  31  58 S13       29.81R
K.C. DOWNTOWN  MOCLDY    48  30  49 S13       29.83R
LEES SUMMIT    MOCLDY    46  30  53 S9        29.84R
OLATHE - IXD   CLOUDY    47  31  53 S17       29.82R
OLATHE - OJC   CLOUDY    47  31  53 S13       29.82R
LAWRENCE       MOCLDY    46  31  55 S8        29.82R

$$

MOZ001>008-011>017-020>025-030>033-038>040-044>046-053-054-260900-
...NORTHERN AND CENTRAL MISSOURI...

CITY           SKY/WX    TMP DP  RH WIND       PRES   REMARKS
ST. JOSEPH     CLEAR     40  31  70 S7        29.81R
MOSBY          MOSUNNY   45  32  61 SE7       29.84R
WARRENSBURG    MOCLDY    45  32  61 S13       29.87R
WHITEMAN AFB   NOT AVBL
CLINTON        MOCLDY    45  34  65 S15       29.89R
SEDALIA        CLOUDY    45  32  60 S14       29.90R
WARSAW         NOT AVBL
MARSHALL       MOCLDY    45  34  65 S10       29.89S
CHILLICOTHE      N/A     41  30  65 SE7       29.86R
MOBERLY        CLEAR     43  30  61 S9        29.90S
KIRKSVILLE     CLEAR     34  30  85 S8        29.88S WCI  27

$$

MOZ041-047>049-056>058-063>065-088>090-097-260900-
...EASTERN AND SOUTHERN MISSOURI...

CITY           SKY/WX    TMP DP  RH WIND       PRES   REMARKS
ST. LOUIS INTL PTCLDY    43  35  73 SE6       30.04R
SPIRIT OF STL  CLEAR     44  35  70 S6        30.02R
COLUMBIA       PTCLDY    44  33  65 S14       29.94R
JEFFERSON CITY MOCLDY    44  32  62 SE7       29.97R
MEXICO         PTCLDY    41  37  87 S8        29.94R
HANNIBAL       CLEAR     41  32  70 SE8       29.95R
ROLLA          MOCLDY    42  34  73 S13       29.97R
LEBANON        MOCLDY    41  32  70 S10       29.96R WCI  35
OSAGE BEACH    CLOUDY    45  30  57 S12       29.95R
SPRINGFIELD    MOCLDY    44  32  62 S13       29.93R
NEVADA         CLEAR     39  32  75 S9        29.90R WCI  33
JOPLIN         PTCLDY    49  33  54 S20G31    29.89S
WEST PLAINS    PTCLDY    38  33  82 S6        30.03R WCI  33

$$

IAZ060-094-KSZ022-034>040-054-083-096-NEZ052-066-093-260900-
...KANSAS...SOUTHEAST NEBRASKA AND IOWA...

CITY           SKY/WX    TMP DP  RH WIND       PRES   REMARKS
TOPEKA         PTCLDY    47  31  53 S7        29.80R
MANHATTAN      CLEAR     41  31  67 SW8       29.77R
EMPORIA        MOCLDY    45  30  55 S14       29.79R
CHANUTE        MOCLDY    45  32  60 S13       29.84R
WICHITA        MOCLDY    46  30  53 S12       29.78R
OMAHA          MOCLDY    32  30  92 N13       29.80R WCI  22
LINCOLN        CLOUDY    33  30  88 N16       29.80R WCI  23
FALLS CITY     CLEAR     35  28  75 SE5       29.77R WCI  31
LAMONI         CLEAR     38  30  73 S10       29.80R WCI  31
DES MOINES     PTCLDY    38  30  73 S9        29.79R WCI  31

$$




USA.gov is the U.S. government's official web portal to all federal, state and local government web resources and services.